Regional Weather Roundup
Issued by NWS

Home | Current Version | Previous Version | Graphics & Text | Print | Product List | Glossary On
Versions: 1 2 3 4 5 6 7 8 9 10 11 12 13 14 15 16 17 18 19 20 21 22 23 24 25 26 27 28 29 30 31 32 33 34 35 36 37 38 39 40 41 42 43 44 45 46 47 48 49 50
000
ASUS43 KDMX 041607
RWRIA

WEATHER ROUNDUP FOR IOWA
NATIONAL WEATHER SERVICE DES MOINES IA
1000 AM CST WED MAR 04 2015

NOTE: "FAIR" INDICATES FEW OR NO CLOUDS BELOW 12,000 FEET WITH NO
SIGNIFICANT WEATHER AND/OR OBSTRUCTIONS TO VISIBILITY.

* - THESE STATIONS ARE NOT NWS STATIONS...THUS NOT UNDER NWS
QUALITY CONTROL.  THEY ALSO DO NOT REPORT WEATHER SUCH
AS PRECIPITATION OR FOG.

IAZ001>003-012>014-020>022-031>034-043>046-041700-
   NORTHWEST IOWA

CITY           SKY/WX    TMP DP  RH WIND       PRES   REMARKS
CARROLL *      SUNNY     18   3  53 W10       30.27S WCI   6
CHEROKEE *     SUNNY     18   7  62 W9        30.24S WCI   6
DENISON *      SUNNY     19   5  53 SW7G14    30.25S WCI  10
LE MARS *      SUNNY     19   7  58 W20       30.25S WCI   4
ORANGE CITY *  SUNNY     19   9  63 W24G30    30.21S WCI   2
SHELDON *      SUNNY     18   5  57 W22G31    30.20S WCI   0
SIOUX CITY     SUNNY     24   4  42 W23G30    30.25F WCI   9
SPENCER        SUNNY     16   4  59 W15       30.21S WCI   1
STORM LAKE *   SUNNY     16   3  57 W12       30.23S WCI   3
$$

IAZ055>058-069>071-079>083-090>094-041700-
   SOUTHWEST IOWA

CITY           SKY/WX    TMP DP  RH WIND       PRES   REMARKS
ATLANTIC *     SUNNY     19   5  53 NW12      30.29F WCI   7
AUDUBON *      SUNNY     19   3  49 W7        30.27S WCI  10
CLARINDA *     SUNNY     21   9  58 N8        30.34R WCI  12
COUNCIL BLFS * SUNNY     21   9  58 W8        30.28S WCI  12
CRESTON *      SUNNY     18   3  53 NW13      30.29R WCI   4
HARLAN  *      SUNNY     19   9  63 W10       30.32S WCI   8
LAMONI         MOSUNNY   18   3  52 NW12      30.30R WCI   5
RED OAK *      SUNNY     21   9  58 VRB3      30.32S
SHENANDOAH *   SUNNY     21  10  63 NW5       30.34S WCI  15
$$

IAZ047>049-059>061-072>074-084-041700-
   CENTRAL IOWA

CITY           SKY/WX    TMP DP  RH WIND       PRES   REMARKS
AMES           SUNNY     14  -1  51 W13       30.29R WCI   0
ANKENY *       SUNNY     16   0  48 NW9       30.31S WCI   4
CHARITON *     SUNNY     18   0  45 NW15      30.29R WCI   3
DES MOINES     PTSUNNY   17   0  47 NW12      30.30R WCI   4
GRINNELL*      SUNNY     12   1  62 NW17G23   30.28R WCI  -5
KNOXVILLE *    SUNNY     16   0  48 NW14      30.28R WCI   1
MARSHALLTOWN   SUNNY     10  -1  61 NW15      30.27R WCI  -7
PELLA *        SUNNY     16   5  62 NW20      30.30S WCI  -1
PERRY *          N/A     18   7  62 NW7       30.30S WCI   8
$$

IAZ004>006-015-016-023>025-035-036-041700-
   NORTH CENTRAL IOWA

CITY           SKY/WX    TMP DP  RH WIND       PRES   REMARKS
ALGONA *       SUNNY     12 N/A N/A W10       30.25R WCI  -1
CLARION *      SUNNY     10   1  67 NW8G17    30.25S WCI  -1
ESTHERVILLE    SUNNY      9  -2  61 NW12      30.22R WCI  -6
FORT DODGE *   SUNNY     14   0  52 W8        30.27R WCI   3
MASON CITY     SUNNY      7  -3  64 NW12      30.25R WCI  -8
FOREST CITY *  SUNNY      9  -6  52 NW9       30.23R WCI  -5
IOWA FALLS *     N/A     12   0  57 W10       30.28R WCI  -1
$$

IAZ007>011-017>019-026>030-037>042-050>054-066-041700-
   NORTHEAST IOWA

CITY           SKY/WX    TMP DP  RH WIND       PRES   REMARKS
CEDAR RAPIDS   SUNNY      9   0  67 NW20      30.24R WCI -10
CHARLES CITY * SUNNY      7  -6  56 NW16      30.24R WCI -11
CLINTON *      SUNNY     10   0  61 NW14      30.23S WCI  -5
DECORAH *      SUNNY      7  -9  47 NW16G22   30.20R WCI -11
DUBUQUE        SUNNY      9   7  92 NW15G24   30.18R WCI  -8
MONTICELLO *   SUNNY      9   0  66 NW16G23   30.22R WCI  -9
OELWEIN *      SUNNY      7  -4  61 NW13      30.25R WCI  -9
WATERLOO       SUNNY      8  -4  58 W15       30.28R WCI  -9
$$

IAZ064-065-067-068-078-041700-
   EAST CENTRAL IOWA

CITY           SKY/WX    TMP DP  RH WIND       PRES   REMARKS
DAVENPORT      SUNNY     10   0  63 NW18      30.23R WCI  -8
IOWA CITY      SUNNY     12  -1  56 NW16G24   30.29R WCI  -5
MT. PLEASANT * PTSUNNY   14  -2  48 NW14G22   30.28R WCI  -1
MUSCATINE *    SUNNY     16   3  57 W16       30.28S WCI   0
QUAD CITIES    MOSUNNY   13   1  59 NW16      30.24R WCI  -3
$$

IAZ062-063-075>077-085>089-095>099-041700-
   SOUTHEAST IOWA

CITY           SKY/WX    TMP DP  RH WIND       PRES   REMARKS
BURLINGTON     CLOUDY    15   4  61 NW13      30.25R WCI   1
FAIRFIELD *    SUNNY     14   0  52 NW16      30.29R WCI  -2
FORT MADISON * MOSUNNY   16   3  57 NW14G21   30.27R WCI   1
KEOKUK *       MOSUNNY   18   3  53 NW10G17   30.27R WCI   6
OSKALOOSA *      N/A     14   1  57 N16       30.30R WCI  -2
CENTERVILLE *  SUNNY     19   1  45 NW17      30.28S WCI   4
OTTUMWA        SUNNY     16   0  49 NW23      30.29R WCI  -2
WASHINGTON *   SUNNY     14   3  62 NW17      30.28R WCI  -3
$$

ABBREVIATIONS USED IN REMARKS
   TC - TEMPERATURES IN CELSIUS
  WCI - WIND CHILL INDEX
   HX - HEAT INDEX
  VSB - VISIBILITY
$$




USA.gov is the U.S. government's official web portal to all federal, state and local government web resources and services.